DW9396 Weather Reports


Display with metric or nautical units.
time (UTC)temp
F
wind
direction
speed
MPH
gust
MPH
rain 1hr
in
rain 24hr
in
rain mn
in
humidity
%
barometer
mb
20260906224553 78 272 1.0 4.0 0.00 0.00 0.00 35 1011.3
20260906223051 78 306 2.0 8.0 0.00 0.00 0.00 35 1011.4
20260906221554 78 290 0.0 5.0 0.00 0.00 0.00 35 1011.7
20260906220054 78 200 2.0 7.0 0.00 0.00 0.00 34 1011.6
20260906214553 78 283 0.0 4.0 0.00 0.00 0.00 34 1011.7
20260906213057 78 340 1.0 4.0 0.00 0.00 0.00 35 1011.7
20260906211553 78 280 0.0 5.0 0.00 0.00 0.00 36 1011.9
20260906210053 78 348 1.0 6.0 0.00 0.00 0.00 36 1011.9
20260906204601 77 306 1.0 5.0 0.00 0.00 0.00 36 1011.9
20260906203048 77 283 1.0 5.0 0.00 0.00 0.00 36 1011.9
20260906201559 78 300 2.0 5.0 0.00 0.00 0.00 36 1011.9
20260906200048 78 269 1.0 3.0 0.00 0.00 0.00 37 1011.9
20260906194547 78 281 1.0 5.0 0.00 0.00 0.00 37 1011.8
20260906193046 79 300 1.0 4.0 0.00 0.00 0.00 37 1011.8
20260906191546 79 332 0.0 3.0 0.00 0.00 0.00 37 1011.8
20260906190046 80 332 0.0 3.0 0.00 0.00 0.00 37 1011.8
20260906184546 80 196 1.0 8.0 0.00 0.00 0.00 38 1011.9
20260906183045 79 197 0.0 3.0 0.00 0.00 0.00 38 1012.0
20260906181545 79 1 0.0 3.0 0.00 0.00 0.00 40 1012.0
20260906180057 77 314 0.0 3.0 0.00 0.00 0.00 39 1012.1
20260906174539 77 20 0.0 3.0 0.00 0.00 0.00 41 1012.1
20260906173034 76 357 0.0 4.0 0.00 0.00 0.00 44 1012.1
20260906171532 74 172 1.0 4.0 0.00 0.00 0.00 45 1012.1
20260906170027 72 194 0.0 2.0 0.00 0.00 0.00 51 1012.2
20260906164523 70 197 0.0 2.0 0.00 0.00 0.00 55 1012.3
20260906163026 71 139 0.0 0.0 0.00 0.00 0.00 55 1012.5
20260906161523 69 138 0.0 0.0 0.00 0.00 0.00 56 1012.6
20260906160015 65 138 0.0 0.0 0.00 0.00 0.00 64 1012.8
20260906154518 60 139 0.0 1.0 0.00 0.00 0.00 70 1012.8
20260906153008 58 138 0.0 1.0 0.00 0.00 0.00 71 1012.9
20260906151504 55 138 0.0 1.0 0.00 0.00 0.00 78 1012.8
20260906150002 52 138 1.0 2.0 0.00 0.00 0.00 82 1012.9
20260906144600 51 138 0.0 2.0 0.00 0.00 0.00 83 1012.7
20260906144504 51 138 1.0 2.0 0.00 0.00 0.00 83 1012.7
20260906143109 50 138 0.0 1.0 0.00 0.00 0.00 84 1012.5
20260906141601 49 138 1.0 2.0 0.00 0.00 0.00 84 1012.4
20260906140100 49 136 0.0 2.0 0.00 0.00 0.00 85 1012.2
20260906134558 49 130 0.0 2.0 0.00 0.00 0.00 84 1012.1
20260906133100 49 141 1.0 2.0 0.00 0.00 0.00 83 1012.0
20260906131602 49 133 0.0 1.0 0.00 0.00 0.00 84 1011.9
20260906130059 49 133 1.0 2.0 0.00 0.00 0.00 84 1011.8
20260906124552 49 136 1.0 2.0 0.00 0.00 0.00 83 1011.6
20260906123058 49 133 0.0 2.0 0.00 0.00 0.00 84 1011.6
20260906121550 49 139 0.0 0.0 0.00 0.00 0.00 83 1011.7
20260906120112 50 138 0.0 1.0 0.00 0.00 0.00 82 1011.7
20260906114601 50 138 0.0 1.0 0.00 0.00 0.00 82 1011.7
20260906113049 50 138 0.0 1.0 0.00 0.00 0.00 84 1011.5
20260906111552 49 138 0.0 1.0 0.00 0.00 0.00 83 1011.7
20260906110045 50 138 0.0 1.0 0.00 0.00 0.00 82 1011.7
20260906104545 50 138 0.0 1.0 0.00 0.00 0.00 81 1011.6
20260906103048 51 138 0.0 1.0 0.00 0.00 0.00 81 1011.6
20260906101542 51 143 0.0 2.0 0.00 0.00 0.00 81 1011.5
20260906100045 51 132 1.0 2.0 0.00 0.00 0.00 80 1011.7
20260906094547 51 147 0.0 3.0 0.00 0.00 0.00 80 1011.8
20260906093039 51 149 0.0 2.0 0.00 0.00 0.00 80 1011.9
20260906091537 51 142 1.0 3.0 0.00 0.00 0.00 80 1012.0
20260906090033 51 147 0.0 2.0 0.00 0.00 0.00 79 1012.1
20260906084531 51 132 0.0 2.0 0.00 0.00 0.00 79 1012.0
20260906083029 52 141 0.0 1.0 0.00 0.00 0.00 78 1012.2
20260906081526 52 135 0.0 1.0 0.00 0.00 0.00 76 1012.3
20260906080025 52 134 0.0 1.0 0.00 0.00 0.00 77 1012.2
20260906074524 52 134 0.0 1.0 0.00 0.00 0.00 77 1012.2
20260906073024 52 132 0.0 1.0 0.00 0.00 0.00 76 1012.2
20260906071520 53 147 0.0 1.0 0.00 0.00 0.00 75 1012.2
20260906070024 53 99 0.0 1.0 0.00 0.00 0.00 74 1012.2
20260906064520 54 132 0.0 1.0 0.00 0.00 0.00 73 1012.1
20260906063028 54 127 0.0 1.0 0.00 0.00 0.00 73 1012.2
20260906061519 55 128 0.0 1.0 0.00 0.00 0.00 72 1012.3
20260906060022 55 149 0.0 2.0 0.00 0.00 0.00 72 1012.3
20260906054530 55 138 0.0 1.0 0.00 0.00 0.00 72 1012.4
20260906053020 56 112 0.0 1.0 0.00 0.00 0.00 72 1012.4
20260906051528 56 62 0.0 1.0 0.00 0.00 0.00 71 1012.5
20260906050028 56 62 0.0 0.0 0.00 0.00 0.00 70 1012.6
20260906044519 57 63 0.0 0.0 0.00 0.00 0.00 69 1012.6
20260906043019 57 62 0.0 0.0 0.00 0.00 0.00 68 1012.4
20260906041518 58 63 0.0 0.0 0.00 0.00 0.00 66 1012.4
20260906040017 59 62 0.0 0.0 0.00 0.00 0.00 64 1012.3
20260906034519 60 62 0.0 0.0 0.00 0.00 0.00 62 1012.2
20260906033014 61 334 0.0 1.0 0.00 0.00 0.00 59 1012.1
20260906031543 62 335 0.0 0.0 0.00 0.00 0.00 58 1011.9
20260906030014 63 334 0.0 0.0 0.00 0.00 0.00 57 1011.8
20260906024534 64 334 0.0 0.0 0.00 0.00 0.00 55 1011.8
20260906023013 65 335 0.0 0.0 0.00 0.00 0.00 53 1011.8
20260906021513 66 334 0.0 0.0 0.00 0.00 0.00 52 1011.8
20260906020011 67 334 0.0 2.0 0.00 0.00 0.00 53 1011.8
20260906014517 68 335 0.0 2.0 0.00 0.00 0.00 50 1011.7
20260906013010 69 344 0.0 1.0 0.00 0.00 0.00 50 1011.8
20260906011510 70 346 0.0 2.0 0.00 0.00 0.00 47 1011.7
20260906010020 72 12 0.0 3.0 0.00 0.00 0.00 45 1011.7
20260906004508 72 339 0.0 2.0 0.00 0.00 0.00 46 1011.6
20260906003007 72 50 0.0 2.0 0.00 0.00 0.00 45 1011.8
20260906001507 72 352 0.0 2.0 0.00 0.00 0.00 45 1011.7
20260906000011 73 290 0.0 2.0 0.00 0.00 0.00 44 1011.7
20260905234507 73 24 1.0 5.0 0.00 0.00 0.00 44 1011.8
20260905233006 73 22 0.0 2.0 0.00 0.00 0.00 44 1011.8
20260905231505 74 45 0.0 4.0 0.00 0.00 0.00 42 1011.8
20260905230009 75 295 1.0 3.0 0.00 0.00 0.00 40 1011.9